MRK1434 SUMU-SAEZ

Flight info

Callsign MRK1434
Flight time 0h 29m
Altitude 22000
Route DAGUS A306 UGIMI
Aircraft B77L/H-SDE1E2E3FGHIJ2J3J4J5M1RWXY/LB1D1

Departure

Time 2026-05-07 18:11
Airport Carrasco General Cesáreo L. Berisso International Airport (SUMU)

Arrival

Time 2026-05-07 18:41
Airport Ezeiza International Airport - Ministro Pistarini (SAEZ)
Time Latitude Longitude Altitude Speed Heading
2026-05-07 17:44 -34.83873 -56.02380 66 ft 0 kts
2026-05-07 17:58 -34.83879 -56.02380 59 ft 4 kts
2026-05-07 17:59 -34.83904 -56.02388 66 ft 4 kts 34°
2026-05-07 17:59 -34.83924 -56.02410 63 ft 4 kts 55°
2026-05-07 17:59 -34.83937 -56.02439 66 ft 4 kts 68°
2026-05-07 17:59 -34.83945 -56.02469 63 ft 4 kts 82°
2026-05-07 18:00 -34.83946 -56.02486 66 ft 1 kts 91°
2026-05-07 18:03 -34.83946 -56.02485 66 ft 0 kts 91°
2026-05-07 18:03 -34.83947 -56.02440 66 ft 11 kts 91°
2026-05-07 18:03 -34.83948 -56.02342 63 ft 12 kts 91°
2026-05-07 18:04 -34.83925 -56.02256 63 ft 12 kts 31°
2026-05-07 18:04 -34.83841 -56.02240 72 ft 14 kts
2026-05-07 18:04 -34.83754 -56.02192 78 ft 14 kts 49°
2026-05-07 18:04 -34.83694 -56.02095 78 ft 14 kts 53°
2026-05-07 18:05 -34.83619 -56.01973 78 ft 24 kts 52°
2026-05-07 18:05 -34.83523 -56.01812 68 ft 23 kts 54°
2026-05-07 18:05 -34.83425 -56.01783 85 ft 15 kts 328°
2026-05-07 18:05 -34.83317 -56.01851 89 ft 21 kts
2026-05-07 18:06 -34.83217 -56.01723 96 ft 21 kts 53°
2026-05-07 18:06 -34.83129 -56.01579 104 ft 21 kts 53°
2026-05-07 18:06 -34.83042 -56.01436 107 ft 20 kts 53°
2026-05-07 18:06 -34.82974 -56.01325 111 ft 13 kts 53°
2026-05-07 18:07 -34.82919 -56.01236 115 ft 13 kts 53°
2026-05-07 18:07 -34.82859 -56.01153 115 ft 13 kts 30°
2026-05-07 18:07 -34.82797 -56.01141 115 ft 0 kts 358°
2026-05-07 18:09 -34.82796 -56.01141 115 ft 2 kts 358°
2026-05-07 18:09 -34.82772 -56.01145 116 ft 5 kts 350°
2026-05-07 18:09 -34.82715 -56.01181 111 ft 11 kts 301°
2026-05-07 18:09 -34.82732 -56.01265 114 ft 1 kts 234°
2026-05-07 18:10 -34.82733 -56.01267 114 ft 1 kts 234°
2026-05-07 18:10 -34.82736 -56.01273 113 ft 1 kts 234°
2026-05-07 18:10 -34.82739 -56.01278 114 ft 0 kts 234°
2026-05-07 18:10 -34.82824 -56.01417 112 ft 63 kts 233°
2026-05-07 18:11 -34.83270 -56.02150 85 ft 149 kts 233°
2026-05-07 18:11 -34.83733 -56.02926 125 ft 190 kts 234°
2026-05-07 18:11 -34.84953 -56.04416 1345 ft 183 kts 209°
2026-05-07 18:11 -34.86095 -56.04998 2331 ft 174 kts 201°
2026-05-07 18:12 -34.87246 -56.05484 2982 ft 176 kts 205°
2026-05-07 18:12 -34.88432 -56.05977 3463 ft 191 kts 204°
2026-05-07 18:12 -34.89768 -56.06506 3771 ft 214 kts 202°
2026-05-07 18:12 -34.91269 -56.07107 4147 ft 236 kts 200°
2026-05-07 18:13 -34.92870 -56.07757 4778 ft 249 kts 201°
2026-05-07 18:13 -34.94544 -56.08454 5487 ft 259 kts 201°
2026-05-07 18:13 -34.96276 -56.09186 6225 ft 268 kts 201°
2026-05-07 18:13 -34.98055 -56.09946 7051 ft 273 kts 201°
2026-05-07 18:14 -34.99858 -56.10716 7907 ft 277 kts 201°
2026-05-07 18:14 -35.01633 -56.11631 8631 ft 279 kts 217°
2026-05-07 18:14 -35.02944 -56.13351 9324 ft 281 kts 244°
2026-05-07 18:14 -35.03541 -56.15617 10072 ft 285 kts 265°
2026-05-07 18:15 -35.03519 -56.18103 10332 ft 306 kts 275°
2026-05-07 18:15 -35.03330 -56.20795 10545 ft 331 kts 276°
2026-05-07 18:15 -35.03100 -56.23662 10826 ft 354 kts 277°
2026-05-07 18:15 -35.02856 -56.26694 11527 ft 363 kts 277°
2026-05-07 18:16 -35.02613 -56.29812 12497 ft 365 kts 277°
2026-05-07 18:16 -35.02382 -56.32853 13529 ft 365 kts 278°
2026-05-07 18:16 -35.02149 -56.35984 14480 ft 366 kts 278°
2026-05-07 18:16 -35.01923 -56.39080 15386 ft 367 kts 279°
2026-05-07 18:17 -35.01702 -56.42166 16290 ft 370 kts 279°
2026-05-07 18:17 -35.01479 -56.45297 17196 ft 371 kts 279°
2026-05-07 18:17 -35.01252 -56.48440 18001 ft 373 kts 280°
2026-05-07 18:17 -35.01024 -56.51575 18570 ft 373 kts 280°
2026-05-07 18:18 -35.00790 -56.54759 18577 ft 378 kts 280°
2026-05-07 18:18 -35.00558 -56.57949 18584 ft 376 kts 280°
2026-05-07 18:18 -35.00328 -56.61114 18582 ft 374 kts 280°
2026-05-07 18:18 -35.00097 -56.64272 18588 ft 374 kts 280°
2026-05-07 18:19 -34.99863 -56.67437 18592 ft 375 kts 281°
2026-05-07 18:19 -34.99629 -56.70605 18593 ft 376 kts 281°
2026-05-07 18:19 -34.99393 -56.73780 18595 ft 376 kts 281°
2026-05-07 18:19 -34.99157 -56.76963 18591 ft 375 kts 281°
2026-05-07 18:20 -34.98924 -56.80110 18583 ft 371 kts 281°
2026-05-07 18:20 -34.98691 -56.83223 18580 ft 367 kts 281°
2026-05-07 18:20 -34.98459 -56.86319 18590 ft 368 kts 281°
2026-05-07 18:20 -34.98222 -56.89394 18597 ft 368 kts 281°
2026-05-07 18:21 -34.97961 -56.92513 18600 ft 370 kts 281°
2026-05-07 18:21 -34.97693 -56.95594 18589 ft 359 kts 282°
2026-05-07 18:21 -34.97437 -56.98554 18581 ft 343 kts 282°
2026-05-07 18:21 -34.97199 -57.01296 18586 ft 329 kts 282°
2026-05-07 18:22 -34.96950 -57.04097 18463 ft 338 kts 282°
2026-05-07 18:22 -34.96862 -57.05065 18299 ft 342 kts 282°
2026-05-07 18:22 -34.96426 -57.09903 17607 ft 345 kts 282°
2026-05-07 18:22 -34.96168 -57.12807 17171 ft 343 kts 281°
2026-05-07 18:23 -34.95916 -57.15673 16732 ft 338 kts 281°
2026-05-07 18:23 -34.95752 -57.17553 16428 ft 336 kts 281°
2026-05-07 18:23 -34.95422 -57.21317 15855 ft 331 kts 281°
2026-05-07 18:23 -34.95256 -57.23162 15572 ft 330 kts 281°
2026-05-07 18:24 -34.95006 -57.25932 15146 ft 327 kts 280°
2026-05-07 18:24 -34.94758 -57.28669 14728 ft 323 kts 280°
2026-05-07 18:24 -34.94434 -57.32262 14167 ft 320 kts 280°
2026-05-07 18:24 -34.94270 -57.34082 13887 ft 319 kts 279°
2026-05-07 18:25 -34.94028 -57.36769 13477 ft 318 kts 279°
2026-05-07 18:25 -34.93787 -57.39443 13071 ft 316 kts 279°
2026-05-07 18:25 -34.93550 -57.42059 12672 ft 314 kts 279°
2026-05-07 18:25 -34.93312 -57.44708 12277 ft 314 kts 278°
2026-05-07 18:26 -34.93076 -57.47345 11877 ft 314 kts 278°
2026-05-07 18:26 -34.92831 -57.49981 11490 ft 312 kts 278°
2026-05-07 18:26 -34.92586 -57.52622 11096 ft 314 kts 277°
2026-05-07 18:26 -34.92342 -57.55266 10697 ft 314 kts 277°
2026-05-07 18:27 -34.92101 -57.57903 10300 ft 312 kts 276°
2026-05-07 18:27 -34.91865 -57.60499 10148 ft 303 kts 276°
2026-05-07 18:27 -34.91637 -57.63009 9996 ft 294 kts 276°
2026-05-07 18:27 -34.91410 -57.65410 9841 ft 273 kts 276°
2026-05-07 18:28 -34.91200 -57.67621 9745 ft 256 kts 276°
2026-05-07 18:28 -34.91001 -57.69738 9642 ft 251 kts 275°
2026-05-07 18:28 -34.90801 -57.71898 9388 ft 262 kts 275°
2026-05-07 18:28 -34.90593 -57.74128 9080 ft 266 kts 275°
2026-05-07 18:29 -34.90385 -57.76367 8755 ft 264 kts 274°
2026-05-07 18:29 -34.90178 -57.78573 8429 ft 260 kts 274°
2026-05-07 18:29 -34.89975 -57.80753 8104 ft 256 kts 274°
2026-05-07 18:29 -34.89772 -57.82896 7796 ft 252 kts 274°
2026-05-07 18:30 -34.89574 -57.85002 7489 ft 247 kts 274°
2026-05-07 18:30 -34.89379 -57.87037 7197 ft 243 kts 274°
2026-05-07 18:30 -34.89187 -57.89068 6915 ft 242 kts 274°
2026-05-07 18:30 -34.88995 -57.91127 6627 ft 247 kts 273°
2026-05-07 18:31 -34.88798 -57.93228 6332 ft 252 kts 274°
2026-05-07 18:31 -34.88596 -57.95345 6021 ft 249 kts 274°
2026-05-07 18:31 -34.88398 -57.97380 5750 ft 229 kts 273°
2026-05-07 18:31 -34.88220 -57.99223 5356 ft 218 kts 273°
2026-05-07 18:32 -34.88054 -58.00966 5120 ft 211 kts 273°
2026-05-07 18:32 -34.87888 -58.02697 4910 ft 200 kts 274°
2026-05-07 18:32 -34.87729 -58.04367 4685 ft 197 kts 274°
2026-05-07 18:32 -34.87570 -58.06031 4465 ft 201 kts 274°
2026-05-07 18:33 -34.87409 -58.07733 4242 ft 204 kts 273°
2026-05-07 18:33 -34.87244 -58.09458 3983 ft 205 kts 274°
2026-05-07 18:33 -34.87077 -58.11164 3737 ft 200 kts 274°
2026-05-07 18:33 -34.86918 -58.12832 3489 ft 197 kts 274°
2026-05-07 18:34 -34.86759 -58.14481 3261 ft 195 kts 274°
2026-05-07 18:34 -34.86602 -58.16115 3034 ft 193 kts 274°
2026-05-07 18:34 -34.86442 -58.17740 2865 ft 191 kts 274°
2026-05-07 18:34 -34.86285 -58.19360 2778 ft 195 kts 275°
2026-05-07 18:35 -34.86125 -58.21020 2687 ft 198 kts 275°
2026-05-07 18:35 -34.86055 -58.22697 2580 ft 198 kts 268°
2026-05-07 18:35 -34.86062 -58.24341 2511 ft 197 kts 268°
2026-05-07 18:35 -34.86071 -58.26003 2524 ft 197 kts 268°
2026-05-07 18:36 -34.86077 -58.27672 2521 ft 198 kts 269°
2026-05-07 18:36 -34.86078 -58.29349 2528 ft 198 kts 269°
2026-05-07 18:36 -34.86078 -58.31025 2513 ft 199 kts 269°
2026-05-07 18:36 -34.86000 -58.32712 2384 ft 201 kts 278°
2026-05-07 18:37 -34.85703 -58.34379 2279 ft 202 kts 281°
2026-05-07 18:37 -34.85388 -58.36027 2135 ft 197 kts 280°
2026-05-07 18:37 -34.85088 -58.37648 2061 ft 197 kts 281°
2026-05-07 18:37 -34.84788 -58.39295 1931 ft 202 kts 281°
2026-05-07 18:38 -34.84487 -58.40964 1772 ft 199 kts 281°
2026-05-07 18:38 -34.84197 -58.42564 1585 ft 188 kts 281°
2026-05-07 18:38 -34.83928 -58.44059 1339 ft 174 kts 281°
2026-05-07 18:38 -34.83678 -58.45443 1104 ft 159 kts 281°
2026-05-07 18:39 -34.83459 -58.46661 976 ft 141 kts 281°
2026-05-07 18:39 -34.83255 -58.47797 901 ft 133 kts 281°
2026-05-07 18:39 -34.83069 -58.48942 788 ft 140 kts 279°
2026-05-07 18:39 -34.82866 -58.50092 511 ft 138 kts 282°
2026-05-07 18:40 -34.82654 -58.51248 252 ft 139 kts 283°
2026-05-07 18:40 -34.82440 -58.52374 117 ft 134 kts 282°
2026-05-07 18:40 -34.82243 -58.53461 89 ft 124 kts 281°
2026-05-07 18:40 -34.82098 -58.54262 88 ft 58 kts 282°
2026-05-07 18:41 -34.82031 -58.54532 89 ft 17 kts 317°
2026-05-07 18:41 -34.81966 -58.54515 89 ft 9 kts 35°
2026-05-07 18:41 -34.81950 -58.54500 87 ft 4 kts 36°
2026-05-07 18:41 -34.81919 -58.54474 86 ft 8 kts 34°
2026-05-07 18:42 -34.81863 -58.54428 85 ft 11 kts 34°
2026-05-07 18:42 -34.81802 -58.54375 84 ft 11 kts 38°
2026-05-07 18:42 -34.81773 -58.54296 80 ft 11 kts 90°
2026-05-07 18:42 -34.81783 -58.54197 80 ft 13 kts 99°
2026-05-07 18:43 -34.81793 -58.54089 80 ft 15 kts 91°
2026-05-07 18:43 -34.81754 -58.53960 85 ft 16 kts 59°
2026-05-07 18:43 -34.81694 -58.53842 80 ft 16 kts 50°
2026-05-07 18:43 -34.81612 -58.53746 84 ft 16 kts 43°
2026-05-07 18:44 -34.81524 -58.53659 80 ft 16 kts 30°
2026-05-07 18:44 -34.81418 -58.53605 85 ft 16 kts 15°
2026-05-07 18:44 -34.81306 -58.53587 83 ft 16 kts 360°
2026-05-07 18:44 -34.81192 -58.53584 84 ft 16 kts 11°
2026-05-07 18:45 -34.81086 -58.53554 86 ft 15 kts 349°
2026-05-07 18:45 -34.81008 -58.53598 84 ft 11 kts 303°
2026-05-07 18:45 -34.81021 -58.53682 81 ft 10 kts 251°
2026-05-07 18:45 -34.81025 -58.53697 81 ft 0 kts 251°